Flag for Russia Weather past 2 weeks in Syktyvkar, Russia

Now
41 °F

Scattered clouds.


Feels Like: 39 °F
Forecast: 28 / 51 °F
Wind: 3 mph from Northwest

Location: Syktyvkar Airport

Current Time: Apr 27, 2015 at 3:37:25 PM

Latest Report: Apr 27, 2015 at 3:00 PM


Visibility: N/A

Pressure: 29.92 "Hg

Humidity: 36%

Dew point: 16 °F

Location of SyktyvkarLocation

Historic Weather in Syktyvkar — Graph

°F

Syktyvkar temperature yesterday

Maximum temperature yesterday: 37 °F (at 11:00 AM)
Minimum temperature yesterday: 27 °F (at 4:00 AM)
Average temperature yesterday: 33 °F

Past Weeks' High & Low Weather Summary

 TemperatureHumidityPressure
High54 °F (Apr 13, 1:00 PM)100% (Apr 15, 2:30 AM)29.95 "Hg (Apr 15, 2:30 AM)
Low25 °F (Apr 15, 4:00 AM)28% (Apr 13, 1:00 PM)29.15 "Hg (Apr 24, 3:30 AM)
Average36 °F72%29.53 "Hg
* Reported Apr 12 2:00 PM — Apr 27 2:00 PM, Syktyvkar, Weather by CustomWeather, © 2015

Note: Actual official high and low records may vary slightly from our data, if they occured in-between our weather recording intervals... More about our weather records

Advertising

Syktyvkar weather history for previous 24 hours

 ConditionsComfort  
Time TempWeatherWind HumidityBarometerVisibility
2:00 PM
Mon, Apr 27
39 °FScattered clouds.6 mph39%29.89 "HgN/A
1:30 PM39 °FPartly sunny.3 mph42%29.89 "HgN/A
1:00 PM39 °FPartly sunny.8 mph48%29.89 "HgN/A
12:30 PM39 °FPartly sunny.3 mph42%29.86 "HgN/A
12:00 PM39 °FPartly sunny.3 mph42%29.86 "HgN/A
11:30 AM36 °FPartly sunny.6 mph56%29.86 "HgN/A
11:00 AM36 °FPartly sunny.6 mph60%29.86 "HgN/A
10:30 AM34 °FSnow flurries. Partly sunny.6 mph70%29.86 "Hg4 mi
10:00 AM36 °FPartly sunny.6 mph56%29.83 "HgN/A
9:00 AM36 °FPartly sunny.8 mph56%29.83 "HgN/A
8:30 AM36 °FScattered clouds.3 mph56%29.83 "HgN/A
8:00 AM34 °FScattered clouds.3 mph65%29.83 "HgN/A
7:30 AM32 °FPassing clouds.6 mph69%29.80 "HgN/A
7:00 AM32 °FPassing clouds.6 mph75%29.80 "HgN/A
6:30 AM32 °FSunny.No wind75%29.80 "Hg10 mi
6:00 AM30 °FSunny.1 mph80%29.80 "Hg10 mi
5:30 AM28 °FSunny.3 mph86%29.77 "Hg10 mi
5:00 AM28 °FPassing clouds.3 mph80%29.77 "HgN/A
4:30 AM28 °FClear.3 mph80%29.77 "Hg10 mi
4:00 AM28 °FPassing clouds.6 mph80%29.77 "HgN/A
3:30 AM28 °FClear.3 mph86%29.74 "Hg10 mi
2:30 AM28 °FClear.6 mph86%29.74 "Hg10 mi
2:00 AM28 °FOvercast.6 mph86%29.71 "HgN/A
1:30 AM28 °FOvercast.6 mph93%29.71 "HgN/A
1:00 AM30 °FOvercast.6 mph86%29.71 "HgN/A
12:30 AM30 °FOvercast.6 mph86%29.71 "HgN/A
12:00 AM30 °FOvercast.8 mph86%29.68 "HgN/A
11:30 PM
Sun, Apr 26
30 °FMostly cloudy.3 mph86%29.68 "HgN/A
11:00 PM30 °FMostly cloudy.6 mph86%29.68 "HgN/A
10:30 PM30 °FMostly cloudy.6 mph86%29.68 "HgN/A
10:00 PM32 °FMostly cloudy.6 mph80%29.68 "HgN/A
9:30 PM32 °FSnow flurries. Mostly cloudy.6 mph80%29.65 "Hg4 mi
9:00 PM32 °FMostly cloudy.8 mph80%29.65 "HgN/A
8:30 PM32 °FMostly cloudy.3 mph87%29.65 "HgN/A
8:00 PM32 °FMore clouds than sun.3 mph87%29.65 "HgN/A
7:30 PM32 °FMore clouds than sun.3 mph93%29.65 "HgN/A
7:00 PM32 °FSnow flurries. Cloudy.3 mph93%29.65 "Hg2 mi
6:30 PM34 °FSnow flurries. Cloudy.6 mph87%29.65 "Hg4 mi
6:00 PM34 °FSnow flurries. Cloudy.6 mph87%29.65 "Hg5 mi
5:30 PM34 °FSnow flurries. Mostly cloudy.6 mph87%29.62 "Hg2 mi
5:00 PM34 °FSnow flurries. Cloudy.3 mph87%29.62 "Hg4 mi
4:30 PM34 °FSnow flurries. Cloudy.6 mph87%29.65 "Hg6 mi
4:00 PM36 °FSnow flurries. Cloudy.10 mph65%29.65 "Hg4 mi
3:30 PM36 °FSnow flurries. Cloudy.10 mph65%29.62 "Hg3 mi
3:00 PM37 °FSnow flurries. Mostly cloudy.3 mph56%29.62 "HgN/A
Weather by CustomWeather, © 2015

See weather overviewHow to use our weather pages